Location: Newark
(48.5667°N, 3.3000°E)
Time: 16:12:59
(UTC+00:00)

N. Korean satellite - Pass Details

Date: 29 October 2019
Orbit: 456 x 506 km, 97.2° (Epoch: 21 November)

Event Time Altitude Azimuth Distance (km) Brightness Sun altitude
Rises 05:38:25 0° 15° (NNE) 2,590 10.3 -8.7°
Reaches altitude 10° 05:40:30 10° 18° (NNE) 1,709 9.4 -8.4°
Maximum altitude 05:44:10 67° 101° (ESE) 549 7.1 -7.8°
Drops below altitude 10° 05:47:51 10° 185° (S) 1,712 9.4 -7.2°
Sets 05:49:56 0° 188° (S) 2,595 10.3 -6.8°
